(296678) = 2009 SQ209

Discovered at Mount Lemmon on 2009-09-23 by Mt. Lemmon Survey.

Orbit

Orbit type: Main Belt

Note: WebGL enabled browser required.

epoch2023-02-25.0
epoch JD2460000.5
perihelion date2021-03-14.84417
perihelion JD2459288.34417
argument of perihelion (°)344.76375
ascending node (°)24.25359
inclination (°)2.94309
eccentricity0.1809378
perihelion distance (AU)1.9976534
Tisserand w.r.t. Jupiter3.5
ΔV w.r.t. Earth (km/sec)8.9
semimajor axis (AU)2.4389521
mean anomaly (°)184.27821
mean daily motion (°/day)0.25876110
aphelion distance (AU)2.880
period (years)3.81
P-vector [x]0.98749858
P-vector [y]0.14945719
P-vector [z]0.05009086
Q-vector [x]-0.15621050
Q-vector [y]0.88537273
Q-vector [z]0.43785089
absolute magnitude17.56
phase slope0.15
uncertainty0
referenceMPO 745323
observations used178
oppositions13
arc length (days)7457
first opposition used2002
last opposition used2023
residual rms (arc-secs)0.74
perturbers coarse indicatorM-v
perturbers precise indicator003Ek
first observation date used2002-12-13.0
last observation date used2023-05-14.0
computer nameMPCLINUX
JD of orbit computation2456639.558428
perihelion JD uncertainty (days)5.7280E-05
argument of perihelion uncertainty (°)8.0703E-05
ascending node uncertainty (°)7.8325E-05
inclination uncertainty (°)6.0778E-06
eccentricity uncertainty 5.7838E-08
perihelion distance uncertainty (AU)1.4137E-07
Minimum Orbit Intersection Distances (in AU)
for orbit epoch: 2460000.5, reference: E2023-JF5
Mercury1.64106
Venus1.27265
Earth0.99544
Mars0.58599
Jupiter2.57178
Saturn6.54122
Uranus15.5866
Neptune27.772

Observations

182 total observations over interval: 2002 12 13.370940 – 2023 05 14.301406
These data are available for download (format description).

Date (UT) J2000 RA J2000 Dec Magn Location Ref
2002 12 13.370940 08 06 32.220 +24 51 55.51 21.31 V 645 – Apache Point-Sloan Digital Sky Survey MPS 308730
2002 12 13.374412 08 06 32.086 +24 51 56.10 22.11   645 – Apache Point-Sloan Digital Sky Survey MPS 308730
2005 07 27.33397 21 58 57.21 -17 43 54.4 20.6   644 – Palomar Mountain/NEAT MPS 308730
2005 07 27.36194 21 58 56.08 -17 44 01.0 20.0   644 – Palomar Mountain/NEAT MPS 308730
2005 07 27.38264 21 58 55.27 -17 44 05.8 20.5   644 – Palomar Mountain/NEAT MPS 308730
2005 09 01.23994 21 27 56.88 -19 49 27.6 20.2   644 – Palomar Mountain/NEAT MPS 308730
2005 09 01.26573 21 27 55.61 -19 49 30.1 20.3   644 – Palomar Mountain/NEAT MPS 308730
2005 09 01.29139 21 27 54.29 -19 49 32.3 20.6   644 – Palomar Mountain/NEAT MPS 308730
2007 01 28.37186 09 14 26.62 +20 41 38.5 21.1 V 691 – Steward Observatory, Kitt Peak-Spacewatch MPS 308730
2007 01 28.38981 09 14 25.46 +20 41 43.4 21.3 V 691 – Steward Observatory, Kitt Peak-Spacewatch MPS 308730
2007 01 28.40776 09 14 24.28 +20 41 48.2 21.4 V 691 – Steward Observatory, Kitt Peak-Spacewatch MPS 308730
2009 09 14.08046 00 26 29.26 +00 06 43.2 19.9 V J75 – OAM Observatory, La Sagra MPS 297896
2009 09 14.08649 00 26 28.92 +00 06 40.5 19.1 V J75 – OAM Observatory, La Sagra MPS 297896
2009 09 14.09284 00 26 28.66 +00 06 39.7 19.4 V J75 – OAM Observatory, La Sagra MPS 297896
2009 09 14.09884 00 26 28.34 +00 06 37.8 19.2 V J75 – OAM Observatory, La Sagra MPS 297896
2009 09 14.10515 00 26 28.01 +00 06 37.8 19.2 V J75 – OAM Observatory, La Sagra MPS 297896
2009 09 14.11117 00 26 27.80 +00 06 36.9 19.4 V J75 – OAM Observatory, La Sagra MPS 297896
2009 09 16.98670 00 24 10.95 -00 02 40.6 18.4 V A50 – Andrushivka Astronomical Observatory MPS 308730
2009 09 17.00811 00 24 09.77 -00 02 44.6 19.5 V A50 – Andrushivka Astronomical Observatory MPS 308730
2009 09 17.02951 00 24 08.75 -00 02 49.4 19.0 V A50 – Andrushivka Astronomical Observatory MPS 308730
2009 09 23.29709 00 18 47.08 -00 24 08.8 19.4 V G96 – Mt. Lemmon Survey MPS 297158
2009 09 23.30690 00 18 46.54 -00 24 10.8 19.3 V G96 – Mt. Lemmon Survey MPS 297158
2009 09 23.31668 00 18 46.00 -00 24 12.7 19.4 V G96 – Mt. Lemmon Survey MPS 297158
2009 09 23.32660 00 18 45.43 -00 24 14.7 19.2 V G96 – Mt. Lemmon Survey MPS 297158
2009 09 25.38926 00 16 55.30 -00 31 18.5 19.1 V 703 – Catalina Sky Survey MPS 297158
2009 09 25.39425 00 16 55.02 -00 31 18.7 19.1 V 703 – Catalina Sky Survey MPS 297158
2009 09 25.39938 00 16 54.69 -00 31 20.5 19.3 V 703 – Catalina Sky Survey MPS 297158
2009 09 25.40443 00 16 54.44 -00 31 21.2 19.2 V 703 – Catalina Sky Survey MPS 297158
2009 10 10.82331 00 03 50.26 -01 16 23.0 19.7 V J75 – OAM Observatory, La Sagra MPS 298413
2009 10 10.83692 00 03 49.54 -01 16 24.5 19.0 V J75 – OAM Observatory, La Sagra MPS 298413
2009 10 10.85029 00 03 48.91 -01 16 26.0 19.2 V J75 – OAM Observatory, La Sagra MPS 298413
2009 10 18.23242 23 58 54.33 -01 28 03.7 20.0 V G96 – Mt. Lemmon Survey MPS 299513
2009 10 18.24043 23 58 54.01 -01 28 04.2 19.9 V G96 – Mt. Lemmon Survey MPS 299513
2009 10 18.24848 23 58 53.72 -01 28 05.0 20.0 V G96 – Mt. Lemmon Survey MPS 299513
2009 10 18.25642 23 58 53.43 -01 28 05.4 19.9 V G96 – Mt. Lemmon Survey MPS 299513
2009 12 11.09057 00 13 01.74 +01 57 33.5 21.5 V G96 – Mt. Lemmon Survey MPS 307382
2009 12 11.09577 00 13 02.02 +01 57 35.8 21.7 V G96 – Mt. Lemmon Survey MPS 307382
2009 12 11.10120 00 13 02.35 +01 57 38.3 21.9 V G96 – Mt. Lemmon Survey MPS 307382
2009 12 11.11327 00 13 03.03 +01 57 43.9 21.0 V G96 – Mt. Lemmon Survey MPS 307382
2011 02 13.41461 10 28 04.36 +13 35 25.6 21.3 V G96 – Mt. Lemmon Survey MPS 369610
2011 02 13.42040 10 28 04.04 +13 35 27.7 21.2 V G96 – Mt. Lemmon Survey MPS 369610
2011 02 13.42619 10 28 03.68 +13 35 29.4 20.9 V G96 – Mt. Lemmon Survey MPS 369610
2011 02 13.43201 10 28 03.36 +13 35 31.3 20.9 V G96 – Mt. Lemmon Survey MPS 369610
2011 03 05.25197 10 08 51.68 +15 08 27.6 21.1 V G96 – Mt. Lemmon Survey MPS 373509
2011 03 05.26100 10 08 51.18 +15 08 29.7 21.1 V G96 – Mt. Lemmon Survey MPS 373509
2011 03 05.27009 10 08 50.67 +15 08 31.3 20.8 V G96 – Mt. Lemmon Survey MPS 373509
2011 03 05.27906 10 08 50.17 +15 08 33.9 21.1 V G96 – Mt. Lemmon Survey MPS 373509
2011 03 05.35801 10 08 45.70 +15 08 51.6 21.6 V G96 – Mt. Lemmon Survey MPS 373509
2011 03 05.36737 10 08 45.16 +15 08 54.1 21.3 V G96 – Mt. Lemmon Survey MPS 373509
2011 03 05.37671 10 08 44.62 +15 08 56.0 21.7 V G96 – Mt. Lemmon Survey MPS 373509
2011 03 05.38611 10 08 44.12 +15 08 58.5 21.6 V G96 – Mt. Lemmon Survey MPS 373509
2011 03 06.23308 10 07 58.36 +15 12 11.9 21.6 V G96 – Mt. Lemmon Survey MPS 373509
2011 03 06.23891 10 07 58.04 +15 12 12.8 21.3 V G96 – Mt. Lemmon Survey MPS 373509
2011 03 06.24474 10 07 57.72 +15 12 13.9 22.0 V G96 – Mt. Lemmon Survey MPS 373509
2011 03 06.25067 10 07 57.39 +15 12 15.9 21.6 V G96 – Mt. Lemmon Survey MPS 373509
2012 05 20.38141 15 37 57.786 -22 08 56.75 21.1 w F51 – Pan-STARRS 1, Haleakala MPS 425938
2012 05 20.39603 15 37 56.831 -22 08 54.48 20.9 w F51 – Pan-STARRS 1, Haleakala MPS 425938
2012 05 20.41063 15 37 55.871 -22 08 52.42 21.0 w F51 – Pan-STARRS 1, Haleakala MPS 425938
2012 05 20.42518 15 37 54.931 -22 08 50.03 21.2 w F51 – Pan-STARRS 1, Haleakala MPS 425938
2013 07 20.58998 02 10 06.030 +11 56 29.65 21.5 w F51 – Pan-STARRS 1, Haleakala MPS 472966
2013 07 20.59525 02 10 06.538 +11 56 32.81 21.8 w F51 – Pan-STARRS 1, Haleakala MPS 472966
2013 07 20.60052 02 10 07.008 +11 56 35.35 21.8 w F51 – Pan-STARRS 1, Haleakala MPS 472966
2013 09 12.39462 03 11 22.38 +17 48 52.0 20.6 V G96 – Mt. Lemmon Survey MPS 477589
2013 09 12.40373 03 11 22.62 +17 48 54.4 20.9 V G96 – Mt. Lemmon Survey MPS 477589
2013 09 12.41274 03 11 22.86 +17 48 56.5 20.6 V G96 – Mt. Lemmon Survey MPS 477589
2013 09 12.42186 03 11 23.10 +17 48 58.3 20.7 V G96 – Mt. Lemmon Survey MPS 477589
2013 10 08.35366 03 12 15.94 +18 47 27.7 20.8 V 691 – Steward Observatory, Kitt Peak-Spacewatch MPS 482175
2013 10 08.37156 03 12 15.38 +18 47 29.0 20.8 V 691 – Steward Observatory, Kitt Peak-Spacewatch MPS 482175
2013 10 08.38946 03 12 14.86 +18 47 29.2 20.3 V 691 – Steward Observatory, Kitt Peak-Spacewatch MPS 482175
2013 10 12.38502 03 10 12.24 +18 48 57.7 20.3 V 691 – Steward Observatory, Kitt Peak-Spacewatch MPS 482175
2013 10 12.40274 03 10 11.58 +18 48 57.7 20.2 V 691 – Steward Observatory, Kitt Peak-Spacewatch MPS 482175
2013 10 12.42047 03 10 10.86 +18 48 58.2 19.9 V 691 – Steward Observatory, Kitt Peak-Spacewatch MPS 482175
2013 10 25.18883 03 00 26.69 +18 39 59.1 19.9 V 691 – Steward Observatory, Kitt Peak-Spacewatch MPS 483493
2013 10 25.20656 03 00 25.69 +18 39 57.8 20.0 V 691 – Steward Observatory, Kitt Peak-Spacewatch MPS 483493
2013 10 25.22429 03 00 24.67 +18 39 56.5 20.0 V 691 – Steward Observatory, Kitt Peak-Spacewatch MPS 483493
2013 10 25.31612 03 00 19.33 +18 39 49.8 19.5 V 703 – Catalina Sky Survey MPS 483493
2013 10 25.32439 03 00 18.88 +18 39 47.8 19.4 V 703 – Catalina Sky Survey MPS 483493
2013 10 25.33267 03 00 18.40 +18 39 48.3 19.2 V 703 – Catalina Sky Survey MPS 483493
2013 10 25.34093 03 00 17.91 +18 39 46.9 19.9 V 703 – Catalina Sky Survey MPS 483493
2013 10 25.36899 03 00 16.701 +18 39 45.49 19.7 r F51 – Pan-STARRS 1, Haleakala MPS 485104
2013 10 25.38132 03 00 15.978 +18 39 44.47 19.7 r F51 – Pan-STARRS 1, Haleakala MPS 485104
2013 10 25.43063 03 00 12.70 +18 39 38.4 19.3 V G96 – Mt. Lemmon Survey MPS 483493
2013 10 25.43764 03 00 12.31 +18 39 37.6 19.3 V G96 – Mt. Lemmon Survey MPS 483493
2013 10 25.44465 03 00 11.90 +18 39 37.1 19.4 V G96 – Mt. Lemmon Survey MPS 483493
2013 10 25.45167 03 00 11.49 +18 39 36.4 19.3 V G96 – Mt. Lemmon Survey MPS 483493
2013 10 25.47372 03 00 10.23 +18 39 34.1 19.5 V G96 – Mt. Lemmon Survey MPS 483493
2013 10 25.47845 03 00 09.96 +18 39 33.6 19.5 V G96 – Mt. Lemmon Survey MPS 483493
2013 10 25.48317 03 00 09.69 +18 39 33.2 19.5 V G96 – Mt. Lemmon Survey MPS 483493
2013 10 25.48791 03 00 09.42 +18 39 32.9 19.6 V G96 – Mt. Lemmon Survey MPS 483493
2013 10 26.34379 02 59 21.99 +18 38 14.1 19.6 V G96 – Mt. Lemmon Survey MPS 485104
2013 10 26.35005 02 59 21.63 +18 38 13.7 19.3 V G96 – Mt. Lemmon Survey MPS 485104
